Location: Bottens
(46.6171°N, 6.6605°E)
Time: 19:59:30
(UTC+00:00)

Cosmos 1125 Rocket - Pass Details

Date: 20 June 2021
Orbit: 757 x 780 km, 74.0° (Epoch: 31 July)

Event Time Altitude Azimuth Distance (km) Brightness Sun altitude
Rises 02:46:12 0° 331° (NNW) 3,245 7.0 -7.7°
Reaches altitude 10° 02:48:43 10° 323° (NW) 2,318 6.1 -7.4°
Maximum altitude 02:53:30 37° 258° (WSW) 1,198 4.1 -6.8°
Drops below altitude 10° 02:58:17 10° 192° (SSW) 2,316 5.5 -6.3°
Sets 03:00:49 0° 184° (S) 3,242 6.3 -5.9°
